Temp
26 26 26 26 26 26 26 26 26 26 26 26 26 26 25 25 25 25 25 24 24 24 24 24 24 24 24 24 24 25 25 25 24 24 24 23 23 23 23 23 22 22 22 22 22 22 22 22 21 21 21 20 20 19 19 20 19 19 19 19 19 19 19 19 19 19 19 19 19 19 19 19 19 19
25 26 26 26 26 26 26 26 26 26 26 26 26 26 26 25 25 24 24 24 24 24 24 24 24 24 24 24 24 24 24 24 24 24 23 23 24 23 23 23 23 22 22 22 22 22 22 21 21 21 21 21 21 20 20 20 20 19 19 19 19 19 19 19 18 18 18 18 18 18 19 19 19 19
25 25 25 26 26 26 26 26 26 26 26 26 26 26 26 26 25 25 24 24 25 24 24 23 23 24 24 24 23 23 23 23 23 23 23 23 24 24 23 23 23 23 23 22 22 22 22 21 21 21 21 21 21 21 20 20 19 19 19 19 19 19 19 19 19 18 19 18 19 19 19 19 19 19
25 25 25 26 26 26 26 26 26 26 26 26 26 26 26 25 25 25 24 23 24 24 24 22 22 22 23 22 22 21 22 22 22 23 23 23 23 24 24 23 23 23 23 22 22 22 22 22 21 21 21 21 21 20 20 20 19 19 19 19 19 19 19 19 19 19 19 19 19 19 19 19 19 19
25 25 25 26 26 25 25 25 26 26 26 26 26 26 26 25 25 25 24 23 23 24 24 23 22 22 22 21 21 21 22 22 22 23 23 23 23 24 24 23 23 23 22 22 22 22 22 22 22 21 21 21 21 20 20 20 20 19 19 19 19 19 19 19 19 19 19 19 19 19 19 19 19 19
25 25 25 25 25 25 24 24 25 25 26 26 26 25 25 25 25 24 24 24 23 23 24 23 23 23 22 22 23 23 23 23 23 23 23 23 23 23 23 23 23 22 22 22 22 22 22 22 22 22 21 21 21 20 20 20 20 20 20 19 19 19 19 19 19 19 19 19 19 19 19 19 19 19
25 25 25 25 25 25 25 25 24 24 25 25 25 25 25 24 24 24 24 23 23 23 23 23 23 22 22 22 23 23 23 23 23 23 23 23 23 22 22 22 23 23 22 22 22 22 22 22 22 22 21 21 21 20 20 20 20 20 20 20 20 19 19 19 19 19 19 19 19 19 19 19 19 19
25 25 25 25 25 25 25 25 25 24 24 25 24 24 24 24 24 23 23 23 23 22 22 22 22 22 22 22 22 22 22 23 23 23 23 23 22 22 22 22 22 22 22 22 22 22 21 21 21 21 21 21 20 20 20 20 20 20 20 20 20 20 20 20 20 20 19 19 19 19 19 19 19 19
25 25 25 25 25 25 24 24 24 24 24 24 24 24 24 23 23 23 22 22 22 22 22 22 21 21 21 21 21 22 22 22 22 22 22 22 22 21 21 22 22 22 22 21 21 21 21 21 20 20 20 20 20 20 20 20 20 20 20 20 20 20 20 20 20 20 20 20 19 19 19 19 19 20
25 25 25 25 25 25 24 24 24 24 24 24 24 24 24 23 23 22 22 22 22 21 21 21 21 21 21 21 21 21 22 22 21 21 21 21 21 21 21 21 21 21 21 21 21 21 21 20 20 20 20 20 20 20 20 20 20 20 20 20 20 20 20 20 20 20 20 20 19 20 20 20 20 20
25 25 25 25 25 25 24 24 24 24 23 23 23 23 23 23 22 22 22 22 21 21 21 21 21 21 21 21 21 20 21 21 21 21 21 21 21 21 21 21 20 21 20 20 20 20 20 20 20 20 19 20 20 20 20 20 20 20 20 20 20 20 20 20 19 20 20 20 19 20 20 20 20 20
25 25 25 25 24 24 24 23 23 23 23 23 23 22 22 22 22 22 21 21 21 21 21 21 21 21 20 20 20 20 20 20 21 21 21 20 20 20 20 20 20 20 20 20 20 20 19 19 19 19 19 19 19 19 19 19 19 19 19 19 20 20 20 19 19 19 19 19 20 20 20 20 20 20
25 25 25 25 24 24 23 23 23 23 23 23 22 22 22 21 21 21 21 21 21 21 21 20 21 21 20 20 20 20 20 20 20 21 21 20 20 20 20 20 20 20 20 20 20 19 19 19 19 18 18 18 18 19 19 19 19 19 19 19 19 19 19 19 19 19 19 19 19 19 19 19 19 19
25 25 25 25 24 23 23 23 23 23 23 22 22 22 21 21 21 21 20 21 21 21 20 20 21 21 20 20 20 20 19 19 20 20 20 20 19 19 19 19 19 19 19 20 19 19 19 19 18 18 18 18 18 19 19 19 19 19 19 19 19 18 18 18 18 18 18 18 18 18 18 18 18 18
25 25 25 24 23 23 23 23 23 22 22 22 22 21 21 21 21 21 20 20 20 20 20 20 20 20 20 19 19 19 19 19 19 20 20 19 19 19 19 19 19 19 19 19 18 17 18 19 18 17 18 18 18 18 18 18 19 19 19 19 18 18 18 18 18 18 18 18 18 18 18 18 18 17
25 25 24 23 22 22 23 22 22 22 22 22 21 21 21 21 21 21 20 20 20 20 20 20 19 19 19 19 19 19 19 19 19 19 19 19 19 19 19 18 18 19 19 19 18 16 17 18 18 17 17 17 17 17 17 18 18 18 18 18 18 18 17 17 17 18 18 17 17 17 17 17 17 16
25 25 24 23 22 22 22 22 22 21 21 21 21 20 20 20 20 20 20 20 20 19 19 19 18 18 18 18 19 19 19 19 19 19 19 19 19 19 18 18 18 19 19 18 17 16 16 17 17 16 16 16 17 17 17 17 18 18 18 17 17 17 17 17 17 17 17 16 16 16 15 15 15 15
24 24 23 22 21 21 22 22 21 21 21 20 20 20 20 19 19 19 19 19 19 19 18 18 18 18 18 18 19 19 19 19 19 19 19 19 19 18 18 18 18 19 18 18 17 16 15 16 17 16 15 16 16 16 17 17 17 18 17 17 17 17 17 16 16 16 16 15 15 15 15 15 15 15
24 24 23 22 21 21 21 21 21 20 20 20 20 19 19 19 18 18 18 18 18 18 18 18 17 18 18 18 19 19 19 19 19 19 19 19 19 18 18 18 18 18 18 18 18 17 15 16 16 15 15 16 16 16 16 17 17 17 17 17 17 17 16 16 16 16 15 15 15 15 15 15 15 15
23 23 22 22 21 21 21 20 20 20 20 20 20 19 18 18 18 17 17 17 17 17 17 17 17 17 18 18 19 19 19 19 19 19 19 18 19 18 18 17 17 18 18 18 18 17 16 16 16 15 16 16 16 16 16 16 16 16 17 17 16 16 16 16 16 16 15 15 15 15 15 15 14 14
22 22 21 21 21 21 20 20 20 20 20 20 19 18 18 17 17 17 16 17 17 17 17 17 17 17 18 18 19 19 19 19 19 19 18 18 19 18 17 16 17 17 17 17 17 17 16 16 16 16 16 16 16 16 16 16 16 16 16 16 16 16 16 15 15 15 15 15 15 14 14 14 14 14
21 21 21 21 21 20 20 20 19 20 20 20 19 18 17 17 17 16 16 17 17 17 17 17 17 17 18 18 19 19 19 18 19 19 18 18 18 17 16 16 16 17 17 17 17 17 16 16 16 16 16 16 16 16 16 15 16 16 16 16 16 15 15 15 15 15 15 14 14 14 14 14 14 14
20 20 20 20 20 20 20 19 19 20 20 19 18 18 17 17 16 16 17 17 17 17 17 17 17 18 18 18 18 18 19 18 19 19 18 18 18 17 16 16 16 16 16 17 17 17 16 16 16 16 16 16 15 15 15 15 15 15 15 15 15 15 15 15 15 15 15 14 14 14 14 13 13 13
20 20 20 20 20 20 20 19 19 20 20 19 18 18 17 17 16 17 17 17 17 17 17 17 17 17 17 18 18 18 18 18 18 18 18 18 18 17 16 16 16 15 16 17 17 17 16 17 17 17 17 16 16 15 15 15 15 15 15 15 15 15 15 15 15 15 15 15 14 14 14 13 13 13
19 19 19 19 19 20 19 19 19 19 18 18 18 17 17 17 17 17 17 17 17 17 17 17 17 17 17 17 17 17 17 17 17 17 17 17 17 17 16 16 15 15 15 16 17 17 17 17 17 17 17 17 16 15 15 15 15 15 14 14 14 14 14 15 15 15 15 15 14 14 14 14 14 13
18 18 19 19 19 19 18 18 18 17 17 17 17 17 17 17 17 17 17 17 17 17 17 17 17 17 17 17 17 17 17 17 17 17 17 16 16 16 16 16 15 15 15 16 17 17 17 17 17 17 16 16 15 15 15 15 14 14 14 14 14 14 14 14 14 14 14 14 14 14 14 14 14 14
18 18 18 18 18 18 17 17 17 17 17 17 17 17 17 17 17 17 17 17 17 17 17 17 17 17 17 17 17 16 16 16 16 16 16 16 16 16 16 16 16 15 16 16 16 16 16 16 17 17 16 16 15 14 14 14 14 14 14 14 14 14 14 14 14 14 14 14 14 14 14 14 14 14
16 16 16 17 17 17 17 17 17 17 17 17 17 17 17 17 17 17 17 17 17 17 17 17 17 17 17 17 17 17 16 16 16 16 16 16 16 16 16 16 16 16 16 16 16 16 16 16 16 17 17 16 15 14 13 13 13 14 14 14 14 14 14 14 13 13 14 14 14 14 14 14 13 13
14 15 16 16 16 16 16 16 16 16 16 16 16 17 17 17 17 17 17 17 16 16 16 16 17 17 17 17 17 17 17 17 16 16 16 16 16 16 16 16 16 16 16 16 16 16 15 16 16 16 16 16 15 14 14 14 14 14 14 14 14 14 14 14 13 13 13 13 13 13 13 13 13 13
12 14 15 15 15 15 16 16 15 15 16 16 16 17 17 17 17 17 17 17 16 16 16 16 17 16 16 17 17 17 17 17 16 16 16 16 16 16 16 16 15 15 15 15 15 15 15 15 16 16 16 15 15 15 15 14 14 14 14 14 14 13 13 14 13 13 13 12 12 12 12 13 13 13
13 13 14 15 15 15 15 16 16 16 16 16 16 17 17 17 17 17 17 17 16 16 16 16 16 16 16 17 17 17 17 16 16 16 16 16 16 16 16 15 15 15 15 15 15 15 15 15 16 16 16 15 14 14 14 14 14 13 13 14 14 13 13 13 13 13 12 12 12 12 12 12 12 12
14 14 14 15 15 15 15 15 15 16 16 16 16 17 17 17 17 17 17 17 16 16 16 16 16 16 16 16 16 16 16 16 16 16 16 16 15 15 15 15 14 14 14 14 14 14 14 15 15 15 15 15 14 14 14 14 14 13 13 13 13 13 13 12 13 12 12 12 12 12 12 12 12 12
14 14 14 14 14 15 14 15 15 15 15 16 16 16 17 17 17 17 17 17 16 16 16 16 16 16 16 16 16 16 16 16 16 16 16 15 15 15 15 14 14 14 14 13 13 14 14 14 14 14 14 14 14 14 14 14 13 13 13 13 13 13 12 12 12 12 12 12 12 11 11 11 11 11
14 14 14 14 14 14 14 14 14 15 15 15 16 16 16 16 16 16 16 16 16 16 16 16 16 16 16 16 16 15 15 15 15 15 15 15 15 14 14 14 13 13 13 13 13 13 14 13 14 14 14 14 14 14 14 13 13 13 13 13 13 13 12 12 12 12 12 12 12 11 11 11 11 11
14 14 14 14 14 14 14 14 14 14 15 15 15 15 15 16 16 16 16 16 16 16 16 16 16 16 15 15 15 15 15 15 14 14 15 15 14 14 14 13 13 13 13 13 13 13 13 13 13 13 14 13 13 13 13 13 13 13 13 13 12 12 12 12 12 12 12 12 12 11 11 11 11 11
14 14 14 14 14 14 14 14 14 14 14 15 15 15 15 15 15 15 15 15 16 16 15 15 15 15 15 14 14 14 14 14 14 14 14 13 13 13 13 13 13 13 13 13 13 13 13 13 13 13 13 13 12 12 12 12 13 13 13 13 12 12 12 12 12 12 12 12 12 11 11 11 11 11
14 14 14 14 14 14 14 14 14 14 14 15 15 15 15 14 15 15 15 15 15 15 15 15 14 14 14 14 14 14 14 14 14 13 13 13 13 13 13 12 13 13 13 13 13 13 13 13 13 13 13 12 11 11 12 12 12 12 13 13 12 12 12 12 12 12 12 12 12 12 11 11 11 11
14 14 14 14 14 14 14 14 14 14 14 14 14 14 14 14 14 14 15 15 15 15 15 14 14 14 14 14 14 14 14 13 13 13 13 13 13 12 12 12 12 12 12 13 13 13 13 13 13 13 13 12 11 11 12 12 12 12 12 12 12 12 11 11 11 11 11 11 12 12 11 11 11 11
15 14 14 14 14 14 14 15 15 14 14 14 14 14 14 14 14 14 14 14 14 14 14 14 14 14 14 14 13 13 13 13 13 13 12 12 12 12 12 12 12 12 12 12 12 12 12 12 13 13 13 12 12 12 12 12 12 12 12 12 11 11 11 11 11 11 11 11 11 12 11 11 11 11
15 15 15 15 15 15 15 14 14 14 14 14 14 14 14 14 14 14 14 14 14 14 14 14 14 14 13 13 13 13 13 13 12 12 12 12 12 12 12 12 12 12 12 12 12 12 12 12 12 12 13 12 12 12 12 12 12 12 11 11 11 11 11 11 11 11 11 11 11 11 11 11 11 11
15 15 15 15 15 14 14 14 14 14 14 14 14 14 14 14 14 14 14 14 14 14 13 13 13 13 13 13 13 13 12 12 12 12 12 12 11 11 11 11 11 12 12 11 11 11 11 11 12 12 13 12 12 12 11 11 10 11 11 11 11 11 11 11 11 11 10 11 11 11 11 11 11 11
15 15 15 15 14 14 14 14 14 14 14 14 14 14 13 13 13 13 13 13 13 13 13 13 13 13 13 13 13 13 12 12 12 11 11 11 11 11 11 11 11 11 11 11 10 11 11 12 12 12 12 12 12 12 10 9 9 10 11 11 11 11 11 11 11 10 10 10 11 11 10 10 10 10
15 15 14 14 14 14 14 14 14 14 14 13 13 13 13 13 13 13 13 13 13 13 13 13 13 13 13 12 12 12 12 12 11 11 11 11 11 10 10 10 10 11 11 10 10 11 11 12 12 12 12 12 11 11 10 9 10 10 10 10 10 10 10 11 11 10 10 10 10 10 10 10 9 9
15 15 14 14 14 14 14 14 13 13 13 13 13 13 13 13 13 13 13 13 13 13 13 13 13 13 12 12 12 12 12 11 11 11 10 10 10 10 10 10 10 10 10 11 11 11 11 11 11 12 11 11 11 10 10 10 10 10 10 10 10 10 10 10 10 10 10 10 10 10 10 10 10 10
15 15 14 14 14 14 14 14 13 13 13 13 13 13 13 13 12 12 12 12 12 13 13 13 13 12 12 12 12 11 11 11 10 10 10 10 10 10 10 9 10 10 10 10 10 11 11 11 11 11 11 11 10 10 10 10 9 9 9 9 10 9 9 10 10 10 10 10 10 10 10 10 10 10
Height
825 825 824 824 823 823 823 822 822 822 822 821 820 820 819 819 821 821 820 817 814 815 815 814 813 812 812 811 810 809 808 808 808 808 809 810 811 812 812 812 812 812 812 812 813 813 813 814 815 816 816 817 818 819 820 821 822 823 824 825 825 826 827 828 828 829 830 830 831 832 832 833 834 835
824 824 823 823 822 822 822 821 821 821 821 820 819 819 819 818 818 819 820 818 813 812 812 810 809 809 809 809 809 808 807 807 808 809 809 810 810 811 811 811 811 812 812 812 812 812 813 814 815 815 816 817 817 818 819 820 821 822 823 824 824 825 826 827 827 828 829 829 830 830 831 832 833 833
823 823 822 822 822 821 821 820 821 820 820 819 819 819 818 818 818 817 818 819 815 813 813 811 810 809 808 808 808 808 807 807 809 810 810 810 810 810 810 810 811 811 811 811 811 812 812 813 814 815 816 816 817 818 818 819 820 821 822 823 824 824 825 825 826 827 827 828 828 829 830 830 831 831
822 822 821 821 821 821 820 820 820 820 819 819 818 818 818 818 818 817 817 818 816 814 815 816 815 814 812 812 811 811 810 810 811 811 811 811 810 809 809 809 810 810 811 811 811 811 811 812 813 814 814 815 816 817 818 819 819 820 821 822 823 823 824 824 825 825 826 826 827 828 828 829 829 829
820 820 820 820 820 820 820 820 819 819 819 818 817 818 817 817 817 817 816 816 815 815 815 815 815 815 814 814 813 812 812 811 811 811 810 810 810 809 809 809 809 809 810 810 810 810 810 811 812 812 813 814 815 816 817 818 818 819 820 821 822 822 823 823 824 824 825 825 826 826 827 827 827 828
818 818 818 818 818 818 818 818 819 819 818 818 818 817 817 817 817 816 816 816 815 815 814 814 813 813 812 812 811 810 810 810 810 810 809 809 809 809 809 809 809 809 809 809 809 809 809 810 811 811 812 813 814 815 816 817 817 818 819 819 820 821 821 822 822 822 823 823 824 824 825 825 826 826
816 816 816 816 816 815 815 815 817 818 818 817 817 817 817 817 816 816 816 815 815 815 814 813 813 812 811 810 810 809 809 809 808 808 808 808 808 808 809 809 809 808 808 808 808 808 808 809 810 811 812 813 813 814 815 816 816 817 817 818 819 819 820 820 820 821 821 821 822 823 823 823 824 824
814 814 814 814 814 814 814 814 814 816 817 816 817 817 817 816 816 815 815 815 815 814 814 813 812 812 811 810 809 809 808 808 808 807 807 806 806 807 808 808 808 808 807 808 808 808 808 808 809 810 811 812 812 813 813 814 815 815 816 816 817 817 818 818 818 819 819 819 820 820 821 821 821 821
813 813 813 813 813 813 813 813 814 815 815 816 816 816 816 815 815 815 815 815 814 814 813 812 812 811 811 810 810 809 808 808 807 807 806 806 806 807 807 807 807 806 807 807 808 807 807 808 809 810 810 810 811 811 812 812 813 813 814 814 815 815 815 815 816 816 817 817 818 818 818 818 818 818
811 811 811 812 812 812 812 813 813 814 814 814 814 813 813 813 813 814 814 814 814 813 813 812 811 811 811 810 810 809 809 808 807 807 807 807 807 807 807 807 806 806 806 807 807 807 807 807 808 808 809 809 809 810 810 811 811 811 811 812 812 812 812 813 813 813 814 814 815 815 815 815 815 815
809 809 809 809 810 810 811 811 812 812 813 812 812 811 811 811 812 812 813 813 813 812 812 811 811 811 810 810 809 809 808 808 807 807 807 807 807 807 806 807 807 806 806 807 807 806 806 806 807 807 808 808 809 809 809 808 808 808 809 810 810 810 810 810 809 810 811 811 812 812 812 812 812 811
807 807 807 807 808 808 809 810 810 810 811 810 810 810 810 810 810 811 811 812 812 812 811 811 810 810 810 809 809 809 808 807 807 806 806 806 806 807 806 807 807 806 806 807 807 807 806 806 807 807 808 808 809 809 808 808 807 807 807 808 807 807 807 807 807 807 808 808 809 809 809 809 808 808
805 805 805 805 806 807 807 808 808 809 809 808 808 809 809 809 809 810 810 810 811 811 810 810 809 809 809 808 808 808 807 807 806 805 805 805 806 806 806 807 807 807 807 807 808 808 807 807 808 808 808 809 809 809 809 809 808 807 807 807 806 806 806 806 805 806 806 806 806 806 806 806 805 806
802 803 803 804 805 805 805 806 807 807 807 806 807 807 808 808 808 808 809 809 809 809 809 808 808 807 807 807 807 807 806 806 805 805 805 805 805 806 806 807 807 807 807 807 808 809 808 808 809 809 810 810 810 810 810 810 809 808 808 807 806 806 807 807 806 805 804 804 804 805 805 804 804 804
800 801 801 802 803 804 804 805 806 806 806 806 806 806 807 807 807 807 808 808 808 808 807 807 806 806 806 806 806 806 806 805 805 805 804 804 805 805 806 807 808 808 808 807 808 810 810 809 810 810 811 811 811 811 811 811 810 809 808 807 807 807 807 807 806 804 804 804 804 804 804 803 803 803
798 799 800 801 802 802 802 804 804 804 805 805 806 806 806 806 807 807 807 807 807 807 806 806 806 805 805 805 805 805 805 805 805 804 804 804 805 805 805 807 808 809 808 808 809 812 812 811 810 812 813 813 813 813 812 812 810 809 809 808 807 807 806 806 805 804 804 804 804 803 803 803 803 802
797 797 799 799 800 801 801 803 803 804 804 805 805 805 806 806 806 806 806 806 806 806 806 805 805 805 805 805 805 805 804 804 804 804 804 804 805 805 806 807 808 809 809 809 810 813 814 812 811 813 815 815 814 814 814 813 812 811 810 809 808 808 807 806 806 805 805 805 805 804 804 804 803 803
796 795 797 797 798 800 800 801 802 803 804 804 805 806 806 807 807 807 807 807 806 806 806 806 806 806 805 805 804 804 804 803 803 804 804 804 805 806 807 808 809 809 810 810 810 814 816 814 812 814 816 817 816 816 816 815 814 813 811 810 809 809 809 808 808 807 807 807 806 806 806 805 805 804
794 794 794 795 797 798 799 800 802 803 804 805 806 806 807 808 808 808 809 808 807 807 807 807 807 806 806 805 804 804 804 803 803 804 804 805 806 807 808 809 809 810 811 811 811 814 817 816 814 815 818 818 817 818 818 817 816 815 814 813 812 811 811 810 810 810 809 809 808 808 807 807 807 806
792 792 792 794 795 797 798 800 801 802 803 804 806 807 808 809 809 810 811 810 809 809 808 808 808 807 806 806 805 804 804 804 804 805 806 807 807 807 808 810 811 811 812 812 812 814 818 818 816 817 819 819 819 820 820 819 818 818 816 815 814 813 813 812 812 812 811 811 810 810 810 810 809 809
789 790 791 792 793 795 797 798 800 801 802 804 805 806 808 809 810 811 812 812 811 810 810 809 809 808 807 806 806 805 805 805 806 806 807 809 808 808 809 812 813 813 813 814 814 815 818 819 818 819 820 821 821 821 821 821 820 820 819 818 817 816 816 815 815 814 813 813 813 813 812 812 811 811
786 788 789 790 792 793 795 797 799 800 801 803 804 805 807 809 811 812 813 813 812 812 811 811 810 809 808 807 807 807 807 807 808 807 808 810 810 810 812 813 814 815 815 815 815 816 818 820 820 820 821 822 823 823 823 822 822 822 821 820 820 819 819 818 817 817 816 816 815 815 815 814 814 813
785 786 787 789 791 792 793 796 798 799 800 802 803 805 806 808 811 812 813 813 813 813 812 812 811 810 810 810 809 809 809 809 810 810 810 811 811 812 814 815 815 817 818 818 817 817 819 821 820 820 821 823 824 825 825 824 825 824 824 823 822 822 821 821 820 819 819 818 818 817 817 816 816 815
782 784 785 787 789 791 792 795 797 799 800 801 803 805 806 809 811 812 813 814 814 814 814 813 813 813 813 812 811 811 811 812 812 812 813 813 813 813 815 816 817 819 821 821 820 819 820 821 821 821 821 822 824 826 827 827 827 827 826 825 825 824 824 823 822 821 821 820 820 819 819 818 817 817
779 780 782 784 786 789 792 794 797 799 801 802 804 806 807 809 811 812 814 815 815 815 815 815 815 815 815 815 814 814 814 815 815 815 816 816 816 816 817 818 819 820 822 822 821 820 821 821 821 821 822 823 825 827 828 828 828 829 828 828 827 826 826 825 824 823 823 822 822 821 820 820 819 818
777 778 780 782 784 787 790 793 795 798 802 803 805 806 809 811 812 813 815 816 817 817 817 817 816 817 817 817 817 817 817 818 818 818 818 819 819 819 820 820 821 822 823 824 823 822 821 822 823 823 823 824 825 827 827 828 829 829 829 829 828 827 827 826 825 825 824 824 823 823 822 821 820 819
774 776 779 781 783 786 790 793 796 799 802 805 806 807 810 812 813 815 816 817 818 819 819 819 818 819 819 819 819 820 820 820 821 821 821 821 821 821 822 822 823 824 825 825 825 824 823 824 824 824 824 824 826 827 828 829 830 830 830 830 829 828 827 827 826 826 826 825 825 824 824 823 822 821
772 773 777 779 781 786 791 794 798 800 803 807 809 809 811 813 814 816 818 818 819 820 820 820 820 821 822 821 821 822 822 822 823 823 823 824 824 824 824 825 825 826 827 827 826 826 825 825 825 826 826 825 826 828 829 831 831 831 831 831 830 829 828 828 827 827 827 827 826 826 825 824 824 823
774 767 770 777 781 786 792 795 800 802 804 809 812 812 812 814 815 817 819 820 820 820 821 822 822 823 823 823 823 823 823 823 824 824 825 825 826 826 826 827 827 828 828 828 828 828 828 827 827 827 827 827 828 829 830 831 832 832 832 831 831 830 830 829 829 829 829 828 827 827 827 826 825 825
784 765 762 774 783 788 793 797 802 806 808 811 814 814 814 816 818 819 821 821 821 821 822 823 824 824 825 825 825 825 825 824 825 825 826 826 827 828 828 828 829 829 829 830 830 830 830 830 829 829 829 829 830 831 831 832 832 833 833 832 831 832 832 831 830 830 830 829 829 828 828 827 827 826
794 775 767 778 788 793 797 800 805 810 813 814 815 816 817 818 820 821 822 822 822 823 823 824 825 826 827 827 827 827 827 826 827 827 827 827 828 829 829 829 830 831 831 831 831 831 831 832 831 831 831 831 832 833 833 833 833 834 834 833 833 833 833 832 831 830 830 830 829 829 829 828 828 827
794 787 784 789 795 799 802 805 809 813 815 816 817 818 819 821 822 823 823 823 824 824 825 826 827 828 828 828 828 828 829 829 829 829 829 829 830 830 830 830 831 832 832 832 833 833 833 833 833 833 833 833 834 835 835 834 835 835 835 835 834 834 834 833 832 831 831 830 830 830 830 829 829 828
792 793 794 797 800 804 807 810 813 816 817 818 819 821 821 823 824 824 824 825 825 826 827 827 828 829 829 830 830 830 830 830 831 831 830 831 831 831 831 832 834 834 834 834 835 835 835 835 835 834 835 835 836 836 836 836 837 837 836 836 836 835 835 834 833 833 832 832 832 831 831 831 830 830
795 797 799 802 805 808 811 814 816 818 819 820 821 823 824 825 825 825 826 827 827 828 828 829 830 830 830 831 831 831 832 832 832 832 832 832 832 832 833 834 835 836 836 836 836 836 836 836 836 836 836 836 837 837 837 837 838 838 838 838 837 836 836 836 835 834 834 833 833 832 832 832 831 831
800 801 803 807 810 812 814 817 818 820 821 822 823 825 826 827 827 828 828 829 829 829 830 830 831 832 832 833 833 833 834 834 834 834 834 834 834 834 835 836 837 838 838 838 838 838 838 838 837 837 837 837 838 839 839 840 840 840 839 839 838 838 837 837 836 836 835 834 834 833 833 832 832 831
804 806 808 811 813 815 817 819 820 822 823 824 826 826 827 829 829 830 830 830 831 831 832 833 833 834 834 835 835 835 836 836 836 836 836 836 836 837 837 838 838 839 839 839 839 839 839 838 838 838 839 839 839 840 841 841 841 841 840 840 839 839 838 838 837 837 836 835 835 834 833 833 832 832
808 810 811 814 816 818 819 821 823 824 825 826 827 828 829 830 831 832 832 832 832 833 834 835 835 836 836 836 837 837 838 838 838 838 838 838 838 838 839 840 840 840 840 841 841 841 840 840 840 840 840 840 841 842 842 842 842 842 841 840 840 840 839 839 838 837 836 836 835 834 834 833 833 832
811 813 814 817 819 821 822 824 825 826 827 828 829 830 831 832 833 833 834 834 835 835 836 837 837 837 838 838 838 839 839 840 840 840 840 840 840 840 840 841 841 842 842 842 842 842 841 841 841 841 841 841 841 842 842 842 842 842 842 842 841 841 840 839 838 838 837 836 835 835 834 834 833 833
815 816 818 820 822 824 825 826 827 828 830 831 831 832 833 834 834 835 835 836 837 837 837 838 839 839 839 840 840 840 841 841 841 841 841 841 841 841 841 842 842 842 843 842 843 843 842 842 842 842 842 841 841 841 842 842 843 843 843 843 842 841 841 840 839 838 837 836 836 835 835 834 834 833
819 820 822 824 825 826 828 829 830 831 832 833 834 835 835 836 836 836 837 837 838 839 839 840 840 841 841 842 842 842 842 843 843 842 842 842 842 843 843 843 843 843 843 843 843 843 843 843 843 843 843 842 842 842 842 843 844 844 844 843 843 842 842 841 839 838 837 837 836 835 835 834 834 833
822 824 826 827 828 829 830 831 832 833 834 835 836 836 837 837 838 838 839 839 840 841 841 842 842 843 843 843 843 843 843 843 843 843 843 844 844 845 845 845 845 845 844 844 845 845 845 845 845 844 844 843 843 843 843 844 844 844 844 844 844 843 843 842 841 840 838 837 836 835 835 834 834 833
825 827 828 829 830 831 832 833 834 835 836 837 837 838 839 839 840 840 841 841 842 842 843 843 843 844 844 844 844 844 844 844 844 845 845 845 846 846 846 846 846 846 846 846 846 846 846 846 846 845 845 844 844 844 844 845 845 845 845 845 844 844 843 843 842 841 839 837 836 835 834 834 834 833
828 829 830 831 832 833 834 835 836 837 838 839 839 840 841 841 842 842 843 843 843 843 844 844 844 844 844 844 844 844 845 845 846 846 847 847 847 848 848 848 848 848 848 848 847 847 847 847 846 846 845 845 845 845 845 846 846 846 846 845 845 844 844 843 843 842 840 838 837 836 835 835 834 834
830 831 832 833 834 835 836 837 838 839 840 840 841 842 842 843 843 843 843 843 843 844 844 844 844 844 844 845 845 846 846 847 847 848 848 849 849 849 849 849 849 849 849 848 848 847 847 847 847 846 846 846 846 846 846 847 847 847 847 846 846 845 844 843 843 841 840 839 838 837 837 836 835 834
831 833 833 835 836 837 838 839 839 840 841 841 842 842 843 843 843 843 843 844 844 844 844 844 844 845 845 845 846 847 847 848 849 849 850 850 850 850 850 851 850 850 849 849 848 848 847 847 848 848 847 847 847 847 847 848 848 848 847 847 846 845 844 843 842 841 840 840 839 838 837 836 835 834
Wind_Speed
9 10 11 12 12 10 9 9 7 6 7 7 7 9 9 7 3 1 2 3 1 2 2 4 3 4 6 5 5 3 2 6 7 7 5 6 9 9 9 10 11 10 9 9 8 7 7 9 10 10 11 12 12 12 13 14 14 14 13 13 13 12 12 14 15 16 16 17 17 17 17 17 18 18
10 10 10 9 10 8 7 7 5 4 5 6 7 8 10 9 6 4 2 3 4 2 4 9 10 9 8 6 7 5 2 2 6 7 5 6 9 10 10 10 10 11 10 9 9 9 8 8 9 10 11 11 12 12 13 13 14 15 14 14 14 14 14 15 16 17 18 18 18 18 17 17 17 18
12 11 9 7 7 7 6 5 4 4 4 6 8 8 9 9 8 7 4 1 4 3 2 6 11 12 10 7 5 5 4 2 6 9 7 7 7 9 11 10 10 11 11 10 10 10 10 9 10 10 11 12 12 13 13 13 14 14 14 14 15 15 16 17 18 19 19 19 20 19 19 18 18 18
11 11 11 11 8 6 6 6 5 5 5 6 7 8 8 9 8 9 7 4 5 7 4 3 3 5 5 3 4 4 3 4 8 10 10 9 7 8 10 10 11 11 11 11 11 10 10 10 11 11 11 11 12 12 13 13 14 14 14 14 15 15 16 17 18 19 19 20 20 19 18 18 17 17
11 12 12 12 9 7 8 8 8 7 5 4 4 5 6 6 6 8 9 7 6 7 7 5 4 5 5 5 6 6 5 6 6 7 9 9 6 5 6 8 10 10 11 12 12 12 11 11 11 12 12 12 12 12 12 12 13 13 14 14 15 15 15 15 16 16 17 18 18 18 18 17 17 17
13 13 11 10 9 8 8 9 9 7 5 3 4 3 4 4 5 6 8 7 6 6 7 6 4 3 3 2 4 5 5 6 6 5 6 7 6 4 4 5 6 7 10 11 12 13 13 12 12 13 13 13 13 12 12 12 12 12 13 14 15 15 15 15 15 15 15 16 16 17 17 17 17 17
13 12 12 10 10 10 10 9 7 7 6 5 4 4 4 4 5 5 6 6 5 5 6 5 3 2 2 3 4 4 4 5 6 6 6 6 6 5 4 4 4 5 8 9 11 13 14 14 14 14 13 14 14 14 14 14 14 14 14 15 15 15 15 15 15 15 15 15 15 16 16 17 17 17
13 12 12 11 10 11 12 11 8 7 8 7 5 4 5 5 5 5 5 5 4 4 5 5 5 4 4 5 5 5 4 4 4 5 6 7 6 5 4 3 4 5 5 6 8 10 12 13 13 14 15 15 15 15 15 16 16 16 17 17 17 18 18 18 17 17 17 16 16 16 16 16 17 18
15 13 13 12 11 11 11 9 7 6 6 6 6 6 6 5 5 5 5 5 5 4 5 6 6 5 5 6 7 5 3 3 5 5 6 7 6 3 2 1 2 3 3 3 4 5 7 9 10 11 12 13 14 15 15 15 16 17 18 19 20 20 20 20 20 20 20 20 20 19 19 19 19 19
16 15 14 13 12 12 11 9 8 7 7 7 6 5 5 3 3 4 5 6 5 4 5 6 6 7 5 5 4 2 1 4 6 6 6 7 5 3 3 4 3 2 2 4 4 3 3 5 6 6 7 9 10 12 13 14 16 18 19 21 22 21 21 21 21 21 21 21 21 21 22 23 23 23
17 16 15 13 12 13 12 10 9 8 7 5 4 4 3 3 3 5 6 6 5 4 5 5 6 6 4 3 2 0 2 5 7 7 7 7 7 7 7 7 6 5 5 6 6 7 7 8 7 6 5 4 5 6 8 9 11 13 16 19 21 21 22 22 22 21 21 22 21 21 23 24 25 25
17 15 14 13 12 12 12 10 9 8 7 5 3 4 4 3 3 4 5 5 5 6 6 6 6 5 4 2 1 1 2 4 4 5 6 9 10 11 11 10 9 8 7 7 8 10 12 12 10 9 8 7 6 3 1 1 2 4 6 10 13 16 18 20 20 20 20 20 20 21 22 23 23 24
16 14 13 12 12 11 11 11 10 9 8 7 6 5 5 4 4 4 4 6 8 9 8 7 6 5 4 2 0 2 2 1 1 4 7 10 11 12 12 12 11 10 11 12 13 13 14 14 13 12 13 14 13 11 9 7 6 5 3 3 4 5 7 9 11 12 13 15 15 17 18 19 20 21
16 14 13 12 12 11 11 11 10 9 8 7 6 5 5 4 4 4 5 7 9 10 10 10 9 7 5 3 1 1 2 1 1 4 7 8 8 9 9 10 10 12 13 14 15 14 12 12 17 19 19 19 18 16 15 12 9 8 6 6 7 7 6 4 3 2 4 7 8 9 11 12 14 15
17 16 14 13 13 13 13 11 9 7 7 6 4 3 2 3 4 5 7 9 10 11 12 11 9 7 5 4 3 2 2 2 4 5 6 7 7 8 7 6 7 10 14 15 16 17 15 15 19 23 22 21 20 19 18 15 12 10 10 10 11 11 11 9 7 6 5 4 4 5 6 7 9 10
18 17 16 15 15 14 13 11 8 7 5 3 3 2 0 2 3 5 6 8 9 10 9 7 4 3 3 4 4 4 3 4 5 6 8 9 9 10 10 8 6 7 13 17 18 18 18 19 23 25 25 24 23 22 20 18 16 15 15 15 15 15 15 14 12 9 8 8 8 7 7 7 7 9
18 17 17 17 15 13 11 9 9 9 7 5 4 3 2 1 2 4 4 5 5 6 4 3 3 1 1 3 4 6 5 6 7 10 13 14 14 15 15 12 10 10 14 19 20 17 17 22 26 26 25 25 25 25 23 22 21 20 20 20 19 19 18 17 16 14 12 12 12 11 11 11 11 11
18 17 19 19 17 15 12 10 11 11 10 8 7 7 6 5 3 2 3 3 3 3 5 6 7 5 3 1 2 4 4 5 9 13 17 17 17 18 18 15 14 13 13 18 19 15 14 22 27 26 24 25 25 25 25 24 24 23 23 23 22 21 20 20 19 19 18 17 16 15 14 14 13 12
19 18 20 21 19 17 12 10 12 13 12 11 12 12 12 13 13 14 14 13 13 12 11 11 9 7 6 4 2 1 1 5 10 15 18 19 19 21 20 18 16 14 12 13 15 13 12 19 25 23 21 23 23 23 24 24 24 24 24 24 24 23 22 21 20 20 20 19 19 18 18 17 16 15
19 19 20 20 18 16 13 12 14 14 14 15 18 19 20 21 21 21 19 18 18 17 16 14 12 10 8 6 4 3 4 7 12 18 20 19 20 22 20 18 17 16 12 11 15 15 12 15 21 21 19 21 22 22 23 24 24 24 23 23 23 23 22 21 20 20 20 20 20 20 19 19 18 17
21 20 21 20 18 17 16 17 17 16 16 19 23 24 25 24 23 21 19 18 18 18 18 17 16 15 12 10 9 8 10 13 17 21 19 15 17 20 17 14 16 17 14 13 16 16 13 13 18 19 17 17 18 19 21 22 22 22 22 22 22 21 21 21 20 20 20 20 20 20 19 18 17 17
21 20 19 19 19 19 19 20 20 19 20 24 28 27 27 25 21 18 17 17 17 19 20 20 20 20 18 17 16 13 13 15 17 18 17 15 16 19 15 11 14 17 16 13 13 14 13 13 16 16 13 12 13 14 17 19 20 21 21 21 21 21 21 21 20 20 20 19 19 19 18 17 17 17
22 21 21 19 18 18 20 22 23 22 24 27 29 29 27 25 20 18 18 18 19 21 23 24 24 25 25 25 24 22 19 16 14 14 15 15 17 19 16 13 12 11 12 11 11 13 11 10 11 10 7 6 8 10 13 16 18 20 20 20 20 20 20 21 21 21 20 19 19 18 18 17 17 18
24 23 23 21 19 19 22 24 25 26 27 29 29 29 27 23 21 20 20 20 21 22 23 24 25 27 28 28 29 29 28 26 22 19 16 16 19 22 22 22 18 12 11 10 10 13 12 9 9 7 5 5 6 8 11 13 15 18 20 20 20 19 19 20 20 20 20 19 19 19 19 18 18 18
25 25 25 24 24 24 25 28 29 28 27 28 27 26 25 24 23 23 22 21 21 21 21 22 23 24 25 26 28 28 29 29 29 27 25 23 23 24 25 25 24 20 17 13 11 13 14 13 12 11 10 9 9 9 10 12 14 17 19 18 18 17 16 17 18 18 19 19 19 20 20 19 19 18
24 24 25 25 27 30 30 30 30 29 26 27 27 26 26 25 23 22 22 21 20 20 21 22 22 22 21 22 23 23 24 25 26 27 27 26 26 26 25 24 23 22 19 15 13 14 16 16 15 15 15 15 13 12 11 10 11 15 16 15 14 13 12 13 15 16 17 18 19 19 19 19 19 18
28 26 27 29 32 33 33 31 30 29 28 28 28 27 24 22 21 21 21 21 20 20 21 22 23 22 21 20 19 19 19 20 22 24 24 24 25 25 23 22 21 20 17 16 15 16 16 16 15 15 17 18 17 14 12 10 13 17 18 17 15 13 12 12 13 14 15 16 17 17 17 17 18 17
35 38 36 38 40 37 35 34 32 32 31 28 27 27 25 24 24 23 22 22 21 22 21 22 22 21 21 20 19 16 15 16 20 22 23 22 23 23 22 20 19 17 16 15 16 16 16 16 15 15 16 18 18 16 13 13 15 16 16 18 20 20 15 11 11 12 13 13 14 15 15 16 16 15
35 51 50 45 45 42 39 38 35 33 32 29 27 28 28 26 25 23 22 22 23 22 22 21 21 20 19 19 19 16 14 14 17 21 22 21 21 20 20 20 20 19 16 15 14 16 16 15 15 16 17 19 21 21 19 18 17 13 11 12 16 20 19 14 10 10 10 11 12 14 14 15 15 15
25 50 58 51 46 44 42 39 35 32 31 29 26 26 26 24 22 21 21 22 23 23 22 21 20 19 18 18 17 16 16 16 17 20 20 20 20 19 20 22 23 21 18 15 14 15 16 14 14 16 20 22 22 22 21 21 21 18 16 13 11 13 17 16 12 9 8 8 10 12 13 13 14 14
30 46 55 50 45 43 41 39 35 31 30 29 28 27 26 25 23 22 21 21 21 22 22 21 20 19 18 18 18 18 19 20 20 19 18 17 18 18 18 22 24 22 19 16 13 14 16 14 12 14 18 22 23 22 22 22 21 20 19 18 15 14 15 16 13 10 7 6 7 9 11 12 13 14
38 44 47 44 41 40 38 36 34 31 30 29 28 27 26 25 24 23 23 22 21 20 19 19 19 19 19 19 19 19 19 20 19 17 16 16 16 16 18 21 22 22 20 17 14 14 15 14 13 14 16 18 19 20 21 21 20 18 17 18 18 16 15 15 14 10 7 6 7 9 11 12 13 13
40 41 41 39 38 36 34 33 31 29 29 28 27 26 25 24 23 22 22 22 21 19 18 18 19 19 19 19 19 19 19 18 17 16 16 17 16 18 21 23 22 22 21 19 15 14 15 16 16 15 16 17 17 16 18 19 18 17 17 17 17 16 15 14 14 12 10 10 10 10 11 12 12 11
37 36 36 34 33 32 31 29 27 27 27 27 26 25 23 22 22 21 20 19 19 19 19 19 19 19 19 18 18 18 19 18 17 17 17 17 16 19 22 24 22 21 21 21 18 15 13 15 16 16 16 17 17 16 16 16 15 15 16 15 14 13 13 13 14 14 13 13 12 12 11 11 10 8
32 31 31 29 28 29 27 25 25 25 26 26 25 24 23 22 21 20 19 18 18 19 20 20 19 18 18 18 17 17 18 18 19 19 19 18 18 21 23 22 21 20 20 20 20 17 13 11 12 14 14 14 14 14 13 13 12 13 14 13 12 11 12 13 13 13 13 13 13 12 11 11 9 7
28 28 28 26 25 25 24 24 24 25 25 24 24 23 23 21 20 20 19 18 18 20 21 20 20 19 19 19 18 18 17 18 19 21 21 20 21 21 21 20 19 19 19 18 18 18 16 14 12 12 13 11 8 7 8 10 11 11 12 13 11 11 12 13 12 11 11 12 13 12 11 10 10 9
27 26 27 26 25 25 25 24 25 25 25 24 23 23 23 21 20 19 18 18 19 20 21 22 21 20 19 19 19 18 18 18 19 21 21 20 20 19 18 17 17 17 18 18 17 16 16 16 14 13 12 8 4 3 5 8 10 10 11 11 11 11 13 14 13 12 10 9 10 11 10 9 10 10
28 27 27 27 26 26 26 26 26 26 25 24 23 23 22 20 19 18 17 18 19 20 20 21 21 20 19 18 19 19 18 17 18 18 19 18 17 17 15 14 14 15 15 16 16 15 15 14 14 13 12 8 4 2 3 6 7 9 9 10 10 11 13 13 12 11 8 7 7 8 7 7 9 10
28 28 28 27 26 27 26 26 25 25 24 23 23 22 20 19 18 17 17 18 19 19 19 19 18 16 16 16 17 18 18 17 17 17 18 18 18 17 16 15 14 15 15 15 15 15 14 13 12 11 11 10 7 4 5 7 8 8 8 9 10 11 12 13 11 9 8 6 5 5 5 6 7 9
28 28 27 27 27 27 27 26 25 24 22 21 20 19 18 17 17 17 17 17 17 18 18 17 16 15 15 16 17 17 17 17 17 17 17 17 17 17 16 16 16 15 16 17 16 14 13 13 12 10 10 10 10 8 7 8 8 7 8 9 10 10 12 13 13 13 11 8 5 4 5 5 5 8
28 28 27 27 26 26 25 25 24 23 21 19 18 17 16 16 16 17 16 16 16 16 16 15 14 14 14 15 15 15 16 16 17 16 16 16 16 16 15 15 16 16 16 17 16 13 12 12 12 11 9 9 9 10 9 7 6 7 9 10 9 10 12 13 14 15 14 11 7 5 5 6 6 8
27 26 25 24 24 24 23 22 22 21 20 18 17 16 15 15 15 16 16 15 15 14 14 13 12 12 13 13 12 12 13 14 15 15 15 14 14 14 14 14 15 16 16 17 15 13 12 12 11 9 8 9 11 12 13 12 12 12 12 10 9 9 9 10 11 14 14 13 11 9 8 6 6 8
24 23 22 21 21 22 22 21 20 19 19 18 17 15 15 14 14 13 13 12 12 12 12 12 10 9 11 13 12 12 12 13 13 14 14 13 13 14 14 13 13 13 14 15 15 13 12 12 11 10 10 12 14 14 14 14 14 14 13 11 10 9 8 6 7 10 12 13 13 13 12 9 6 7
22 21 20 19 19 20 21 21 20 19 18 17 16 15 14 14 14 12 11 10 10 11 12 11 11 11 13 14 14 14 14 14 14 15 15 14 13 13 13 11 11 11 12 13 14 13 11 10 11 11 11 12 13 13 14 14 13 13 12 10 9 9 9 8 7 8 10 12 13 13 13 11 9 7
20 20 19 18 18 20 21 21 20 19 18 16 15 14 13 13 12 12 11 9 10 11 11 11 11 12 13 14 14 15 15 15 14 15 15 15 14 13 13 11 11 12 13 13 14 14 11 10 10 11 12 13 13 13 14 13 12 11 10 9 9 10 11 10 10 10 11 11 12 12 11 11 10 8
Wind_Direction
270 275 283 288 293 292 277 272 273 276 273 263 265 266 254 244 250 302 309 297 238 195 287 324 343 6 4 10 11 3 180 185 192 193 206 233 240 240 233 222 215 213 210 204 200 196 197 202 205 206 203 200 201 202 203 203 203 204 205 208 212 214 219 224 227 230 234 240 244 243 244 245 246 248
267 276 287 288 291 294 278 261 255 261 265 257 251 252 252 249 243 231 241 289 299 298 321 326 335 342 346 7 11 356 356 204 204 197 209 238 240 237 234 231 224 219 216 212 208 207 205 207 211 214 215 212 210 211 211 211 211 212 213 214 216 218 221 226 231 233 235 240 247 250 252 253 252 252
266 269 274 281 291 292 269 243 239 256 267 264 255 249 250 253 252 246 225 234 297 297 326 328 329 329 330 348 350 328 343 309 223 209 225 258 252 232 227 229 229 225 222 219 215 215 214 215 215 217 221 222 220 219 219 219 219 220 223 224 224 225 225 227 231 235 237 241 245 250 252 253 251 250
266 266 266 272 280 275 259 251 251 265 281 272 256 254 257 254 252 252 235 214 263 275 256 230 255 271 279 275 237 238 239 218 215 217 234 261 265 234 222 222 226 228 227 226 222 220 221 222 223 223 224 225 226 226 226 226 227 227 230 234 235 235 235 235 237 240 242 245 248 251 254 254 252 250
269 273 268 266 273 276 272 268 259 258 267 267 255 256 256 247 245 249 242 234 256 275 275 269 239 202 199 200 202 214 218 209 214 224 233 246 255 243 223 215 219 225 228 230 228 225 226 228 230 230 229 230 231 231 232 233 234 234 236 240 243 245 247 248 249 250 251 252 253 256 258 259 258 257
268 271 267 263 271 275 272 273 274 263 250 259 269 249 228 231 243 249 247 249 257 266 279 291 274 209 199 220 218 233 245 235 230 230 226 230 237 240 228 216 218 224 226 229 227 227 229 230 233 235 234 236 237 238 240 241 243 245 245 246 247 250 253 256 258 260 262 262 261 261 262 263 264 263
263 262 260 259 262 257 243 239 257 269 272 281 272 247 245 264 272 265 255 256 261 266 282 295 286 257 257 261 256 260 261 243 226 219 208 205 206 209 216 229 244 239 230 229 228 229 230 232 236 238 240 240 240 241 244 247 250 254 256 256 254 254 255 257 260 261 263 266 267 268 270 269 269 268
255 252 249 246 250 251 237 221 226 259 279 278 259 263 290 297 285 272 261 270 277 273 283 291 289 285 272 271 281 286 274 241 208 193 185 184 188 198 214 232 244 238 229 225 224 224 227 231 237 243 246 247 246 246 247 249 252 255 257 259 260 259 258 259 260 261 262 263 264 264 266 268 269 269
248 247 246 245 244 243 237 227 228 251 263 257 260 285 304 303 283 266 268 286 293 283 284 285 282 279 276 279 284 286 272 209 182 170 170 173 172 182 198 193 206 217 218 216 215 215 218 223 230 238 244 247 247 247 248 250 253 255 256 258 259 260 260 260 261 261 261 263 264 264 262 260 261 261
246 248 250 252 249 241 237 233 229 239 246 247 261 283 296 295 273 264 278 286 284 280 282 279 277 281 284 281 279 284 237 185 175 164 158 155 145 144 144 122 112 126 148 143 129 123 149 175 190 204 219 227 228 231 237 242 246 249 251 253 254 255 256 258 259 259 261 263 266 268 267 265 263 260
243 251 251 249 248 241 237 233 226 229 235 241 265 277 277 283 273 270 277 276 273 284 289 282 280 287 296 298 294 304 166 171 170 170 161 140 120 112 113 114 109 107 120 123 114 108 111 119 131 143 155 177 195 211 227 236 239 243 246 247 249 249 251 253 256 257 258 260 263 267 270 271 269 267
239 247 247 247 246 235 226 222 217 214 215 225 244 247 245 255 260 265 270 267 273 282 281 283 288 291 295 300 318 94 142 158 171 177 156 131 117 106 99 102 106 104 108 109 104 104 107 107 112 115 103 91 99 128 167 257 260 259 257 253 252 251 251 253 255 255 256 257 259 262 265 267 267 268
232 238 242 245 238 221 211 213 217 219 225 235 236 229 231 239 248 261 267 265 270 270 263 264 274 282 280 266 102 80 91 104 192 179 157 143 130 112 96 92 99 106 110 108 105 107 109 104 98 95 86 78 78 82 74 58 44 33 7 322 297 278 268 264 260 259 259 259 259 260 263 267 269 271
224 228 232 230 218 206 207 219 228 229 230 235 233 232 236 243 261 275 272 267 265 261 255 253 252 250 245 232 202 111 82 77 157 171 169 166 153 135 112 88 89 105 114 109 101 102 110 105 91 86 80 74 71 68 64 57 50 45 38 27 22 19 16 2 334 301 266 261 264 267 270 274 277 282
218 218 217 208 198 197 206 220 228 224 225 232 226 223 244 267 276 275 272 271 266 259 255 252 248 240 230 228 224 202 185 172 165 163 168 175 168 153 134 94 76 98 112 110 101 98 106 108 94 84 78 72 67 63 59 56 52 49 45 38 34 33 33 29 24 25 21 357 334 316 306 301 300 307
211 210 206 196 196 202 207 216 219 204 199 210 192 169 359 304 277 269 271 271 268 264 256 240 235 239 220 219 229 216 192 175 165 146 141 147 141 122 107 88 72 97 113 113 106 100 104 106 95 85 78 73 70 66 62 58 54 50 48 48 46 44 43 44 45 39 30 28 26 15 2 357 349 343
207 204 199 191 192 198 197 199 199 184 167 153 151 156 141 133 261 271 279 276 271 268 245 178 131 97 173 215 231 226 207 178 153 130 124 125 119 105 94 86 90 109 121 119 112 105 106 104 96 88 81 77 74 71 67 63 59 55 51 51 52 52 51 52 53 52 49 49 49 44 36 30 24 19
208 201 197 191 186 187 187 184 181 177 175 167 160 162 150 128 118 112 104 108 111 110 112 103 87 74 62 359 250 246 228 173 143 133 129 123 113 102 93 89 97 111 125 124 114 108 110 105 98 93 88 82 78 75 70 66 62 58 55 53 53 53 54 55 55 56 56 56 54 49 44 40 37 37
205 196 195 191 187 186 188 189 183 178 174 167 155 144 130 115 106 99 94 93 92 88 86 83 76 69 57 41 41 18 213 160 141 137 133 125 116 107 95 89 94 102 116 127 120 114 118 108 100 98 94 86 81 78 72 67 64 61 59 58 56 54 53 54 56 58 59 58 55 52 51 51 52 55
196 190 190 188 185 184 182 181 179 173 166 159 147 133 122 113 105 97 90 88 87 84 82 81 79 74 71 69 77 107 138 139 137 133 126 119 117 109 92 78 78 81 88 110 118 119 122 111 103 102 97 90 87 83 77 72 69 65 64 62 61 59 57 56 57 59 60 60 58 55 55 56 57 59
188 186 187 186 182 179 175 170 167 166 164 156 145 133 124 116 109 101 96 91 89 88 87 86 86 84 85 89 95 111 126 133 138 133 122 117 116 106 91 76 71 71 75 93 106 108 113 116 109 106 101 94 90 87 81 76 73 70 69 68 66 65 63 62 61 61 60 60 59 57 55 55 56 58
180 179 183 186 182 177 174 168 163 165 165 155 145 136 128 122 117 110 104 98 95 94 91 89 89 87 86 88 90 97 115 132 141 133 122 123 115 101 95 91 79 69 65 79 99 102 108 123 118 109 106 97 89 87 83 76 72 71 71 72 70 67 65 63 61 60 59 59 60 59 56 54 55 56
171 172 175 180 181 176 172 168 165 168 166 155 145 137 130 125 121 116 111 109 105 98 91 87 86 86 85 86 85 87 93 105 118 120 121 127 117 101 92 87 82 65 47 60 97 106 108 132 134 123 119 99 85 89 87 79 73 71 71 73 72 68 64 62 61 59 59 60 62 61 59 58 57 57
171 172 172 172 174 174 170 168 167 166 161 151 142 136 129 125 123 119 116 115 110 100 91 88 87 86 86 85 84 83 83 83 86 90 98 109 108 100 89 80 78 72 48 53 91 102 99 115 131 136 141 118 103 101 94 84 76 71 69 70 68 65 62 62 64 63 61 63 64 63 61 61 59 57
173 174 173 169 168 169 169 166 161 156 151 144 138 133 128 127 128 125 120 117 111 103 96 93 91 89 88 87 85 84 83 82 81 82 85 89 91 90 86 81 76 71 62 61 84 97 92 90 97 108 108 101 109 119 106 93 84 75 68 64 62 60 57 58 63 65 64 65 65 64 62 61 59 57
167 167 167 164 163 163 162 158 152 146 143 138 133 130 129 129 129 126 123 120 113 105 100 96 93 91 91 91 90 90 89 87 85 85 86 88 87 83 82 81 77 71 67 67 76 87 88 82 86 100 101 93 97 105 100 94 89 79 70 61 57 58 59 60 63 66 68 68 65 62 60 59 56 54
157 153 152 151 152 152 148 145 141 137 134 131 129 129 130 128 127 125 124 120 112 105 100 94 91 89 90 91 93 95 97 96 93 92 92 93 92 89 84 81 78 74 73 72 72 76 80 81 85 99 104 100 94 87 78 81 86 80 72 65 59 57 62 69 70 69 72 72 68 62 60 58 55 51
145 138 135 136 137 136 132 129 128 126 124 123 125 127 127 126 125 123 120 116 110 103 97 92 89 88 88 88 90 93 100 105 103 100 98 97 96 92 86 81 76 72 71 70 68 69 73 81 89 95 101 101 96 87 81 83 85 82 75 68 60 53 52 63 77 81 79 74 70 64 59 58 55 51
134 130 125 124 123 122 120 118 116 117 118 121 124 125 124 123 123 121 118 114 107 101 96 92 90 89 88 89 90 94 103 113 116 111 104 100 96 91 85 77 69 65 64 66 68 68 68 79 93 95 94 95 95 95 91 84 78 76 72 68 61 52 48 51 70 88 86 75 67 62 58 56 54 48
108 116 115 113 111 112 113 112 109 110 115 119 119 117 117 119 121 123 122 116 109 103 98 95 92 92 93 94 96 99 101 105 117 122 114 103 95 89 83 75 67 62 62 67 72 71 70 80 97 100 96 93 91 91 90 85 79 73 66 64 64 54 48 51 61 77 83 75 64 57 55 54 51 45
83 94 101 104 106 107 110 111 112 112 112 113 111 109 110 112 114 117 119 117 113 109 103 99 97 97 98 98 97 97 94 94 104 116 115 103 94 87 80 73 66 62 62 67 73 71 70 81 100 103 100 96 92 88 86 83 81 77 67 61 60 54 47 49 57 67 78 83 72 61 55 52 48 44
97 95 99 103 105 105 105 107 110 110 109 108 108 108 109 109 110 112 113 113 112 112 111 108 106 103 99 96 93 92 90 89 94 102 105 101 94 87 79 73 66 61 60 65 72 72 72 83 101 104 96 91 90 88 83 78 77 75 69 62 58 51 43 42 49 60 74 85 78 66 58 53 48 43
106 103 103 103 103 103 102 102 104 105 105 105 106 106 108 109 109 110 110 109 108 110 114 115 113 109 102 96 92 90 87 85 87 94 100 102 96 88 81 77 71 66 64 65 71 80 84 88 96 101 96 87 81 75 74 76 76 70 64 60 55 49 44 44 51 62 70 71 68 63 57 52 49 47
106 104 103 103 104 105 104 103 102 102 103 103 102 104 105 105 105 105 105 106 108 108 109 112 114 112 105 97 92 87 85 85 86 91 97 100 96 88 84 81 78 74 71 67 67 76 90 93 93 97 98 93 83 71 65 71 77 74 67 63 58 55 53 54 60 67 68 66 64 62 57 51 48 52
105 104 104 104 105 106 106 106 105 104 104 103 103 103 102 101 102 101 101 106 110 109 108 110 113 112 106 99 93 89 88 89 88 90 96 100 97 91 88 86 83 79 75 69 64 66 78 91 97 98 93 87 83 77 69 69 76 79 75 69 67 65 61 59 62 65 63 61 62 62 57 49 42 42
105 106 107 107 109 110 108 107 106 106 105 105 105 105 101 99 99 98 99 106 111 111 110 112 112 111 107 103 98 95 93 92 89 88 94 101 102 96 91 89 87 82 76 70 64 64 68 73 82 86 80 75 74 70 70 73 74 71 69 69 70 65 58 56 56 56 55 55 54 55 56 50 40 32
107 108 108 108 110 110 109 108 108 106 106 106 106 105 102 100 100 99 101 106 110 111 111 112 112 112 110 106 103 100 97 93 90 88 90 98 103 100 95 91 87 82 78 71 64 61 62 62 65 68 70 72 68 54 74 87 81 70 63 61 59 55 50 48 47 46 48 51 48 47 53 53 41 30
109 109 108 108 109 110 110 111 110 108 107 107 107 106 104 103 104 105 105 105 108 111 111 110 110 110 109 108 107 106 102 97 92 86 85 90 94 95 94 91 83 80 79 72 64 60 59 60 64 65 63 63 61 77 121 115 91 77 68 56 50 47 42 38 36 34 37 52 54 45 44 47 40 29
111 111 111 112 112 111 111 112 113 111 109 108 107 107 107 105 106 108 107 106 108 111 111 109 108 108 108 108 107 106 105 101 94 86 83 84 86 86 85 82 76 74 72 65 59 59 63 67 72 69 64 60 55 71 132 133 111 93 75 51 39 35 33 32 34 31 28 41 58 47 34 37 38 28
114 115 116 117 117 115 113 112 113 112 111 109 109 108 107 105 104 105 107 108 109 110 109 109 109 109 109 111 110 107 105 103 98 91 86 83 82 80 79 76 72 69 64 58 56 57 62 67 71 70 71 75 76 84 110 128 127 107 75 50 38 37 39 42 45 41 34 31 38 40 26 23 29 24
117 118 120 121 121 120 119 116 114 112 110 110 110 109 108 107 106 106 108 111 113 113 111 110 111 112 113 114 112 107 106 105 101 94 89 85 80 77 76 74 71 68 63 58 55 56 63 70 75 76 77 81 87 86 83 86 97 89 72 61 55 51 52 53 50 43 36 29 24 19 9 359 1 13
121 121 123 124 124 125 126 123 119 116 113 111 112 114 114 111 110 112 114 116 117 119 117 114 113 114 116 116 112 106 106 107 102 94 88 83 77 74 72 70 68 67 65 60 58 66 79 81 79 77 69 64 72 80 76 72 76 77 67 57 46 38 42 51 51 43 38 35 34 31 22 2 349 360
127 127 127 129 132 133 134 132 129 124 119 115 115 118 120 117 115 116 116 114 113 116 120 118 114 116 121 121 116 111 112 112 107 101 95 86 78 74 72 70 69 68 67 66 68 82 94 87 73 65 61 60 72 89 92 85 79 72 61 50 39 28 23 30 39 42 44 46 45 43 41 37 23 7
132 132 132 132 135 137 139 139 137 131 126 119 115 115 118 118 115 113 112 110 110 114 120 121 119 123 130 127 117 112 113 113 109 107 102 94 86 78 72 71 73 69 65 67 72 82 94 90 77 70 65 61 73 94 102 97 89 77 65 57 48 37 29 21 17 28 41 44 39 34 31 28 20 7
135 136 136 135 136 137 138 139 138 133 127 122 117 114 117 119 115 107 103 108 115 121 124 126 125 129 136 134 123 119 120 119 114 108 100 93 87 81 72 70 72 68 63 63 66 73 88 98 95 87 76 69 80 98 101 96 94 86 73 64 53 40 33 27 17 19 30 33 27 22 21 19 13 6